Flag Weather past 2 weeks in Bentonville, Arkansas, U.S.A.

Now
34 °F

Clear.


Feels Like: 30 °F
Forecast: 36 / 58 °F
Wind: 5 mph from Southeast

Location: Bentonville Weather Observing Station

Current Time: Nov 27, 2014 at 7:47:36 PM

Latest Report: Nov 27, 2014 at 7:15 PM


Visibility: 10 mi

Pressure: 30.39 "Hg

Humidity: 56%

Dew point: 19 °F

Location of BentonvilleLocation

Historic Weather in Bentonville — Graph

°F

Bentonville temperature yesterday

Maximum temperature yesterday: 50 °F (at 12:55 PM)
Minimum temperature yesterday: 30 °F (at 1:35 AM)
Average temperature yesterday: 40 °F

Past Weeks' High & Low Weather Summary

 TemperatureHumidityPressure
High66 °F (Nov 23, 2:35 PM)94% (Nov 23, 8:15 AM)30.55 "Hg (Nov 23, 8:15 AM)
Low12 °F (Nov 18, 4:15 AM)29% (Nov 20, 1:15 PM)29.30 "Hg (Nov 23, 2:35 PM)
Average37 °F60%30.16 "Hg
* Reported Nov 12 6:15 PM — Nov 27 6:35 PM, Bentonville, Weather by CustomWeather, © 2014

Note: Actual official high and low records may vary slightly from our data, if they occured in-between our weather recording intervals... More about our weather records

Advertising

Bentonville weather history for previous 24 hours

 ConditionsComfort  
Time TempWeatherWind HumidityBarometerVisibility
6:35 PM
Nov 27
37 °FClear.3 mph41%30.39 "Hg10 mi
5:55 PM37 °FClear.No wind41%30.40 "Hg10 mi
5:35 PM39 °FClear.3 mph39%30.40 "Hg10 mi
5:15 PM39 °FClear.3 mph39%30.40 "Hg10 mi
4:55 PM41 °FSunny.3 mph39%30.41 "Hg10 mi
4:35 PM43 °FSunny.No wind36%30.42 "Hg10 mi
3:55 PM45 °FSunny.3 mph34%30.42 "Hg10 mi
3:35 PM45 °FSunny.3 mph34%30.42 "Hg10 mi
3:15 PM45 °FSunny.No wind37%30.43 "Hg10 mi
2:55 PM43 °FSunny.No wind46%30.44 "Hg10 mi
2:35 PM43 °FSunny.No wind42%30.45 "Hg10 mi
2:15 PM41 °FSunny.No wind49%30.46 "Hg10 mi
1:55 PM39 °FSunny.No wind52%30.46 "Hg10 mi
1:35 PM39 °FSunny.No wind52%30.48 "Hg10 mi
1:15 PM37 °FSunny.No wind60%30.49 "Hg10 mi
12:55 PM36 °FSunny.No wind65%30.50 "Hg10 mi
12:35 PM36 °FSunny.6 mph65%30.51 "Hg10 mi
12:15 PM36 °FSunny.6 mph65%30.52 "Hg10 mi
11:55 AM36 °FPassing clouds.6 mph65%30.53 "Hg10 mi
11:35 AM34 °FPartly sunny.No wind70%30.53 "Hg10 mi
11:15 AM34 °FPartly sunny.3 mph70%30.54 "Hg10 mi
10:55 AM34 °FOvercast.3 mph70%30.55 "Hg10 mi
10:35 AM32 °FPartly sunny.No wind75%30.54 "Hg10 mi
10:15 AM30 °FPartly sunny.No wind75%30.54 "Hg9 mi
9:55 AM30 °FOvercast.No wind75%30.55 "Hg9 mi
9:35 AM28 °FOvercast.No wind74%30.54 "Hg9 mi
9:15 AM28 °FOvercast.3 mph74%30.54 "Hg8 mi
8:55 AM28 °FOvercast.3 mph80%30.53 "Hg8 mi
8:35 AM28 °FOvercast.No wind80%30.52 "Hg7 mi
7:55 AM27 °FOvercast.No wind80%30.49 "Hg7 mi
7:35 AM27 °FPartly sunny.3 mph80%30.49 "Hg7 mi
7:15 AM27 °FScattered clouds.No wind80%30.48 "Hg6 mi
6:55 AM27 °FClear.3 mph80%30.47 "Hg10 mi
6:35 AM27 °FClear.5 mph80%30.46 "Hg10 mi
6:15 AM27 °FClear.5 mph80%30.45 "Hg10 mi
5:55 AM27 °FClear.6 mph80%30.44 "Hg10 mi
5:35 AM27 °FClear.3 mph80%30.45 "Hg10 mi
4:55 AM27 °FClear.7 mph80%30.45 "Hg10 mi
4:35 AM28 °FPassing clouds.6 mph74%30.45 "Hg10 mi
4:15 AM28 °FClear.8 mph74%30.44 "Hg10 mi
3:55 AM28 °FClear.9 mph74%30.44 "Hg10 mi
3:35 AM28 °FPassing clouds.12 mph74%30.44 "Hg10 mi
3:15 AM28 °FPassing clouds.13 mph74%30.43 "Hg10 mi
2:55 AM30 °FPassing clouds.9 mph69%30.42 "Hg10 mi
2:35 AM30 °FOvercast.10 mph69%30.42 "Hg10 mi
2:15 AM30 °FOvercast.12 mph69%30.42 "Hg10 mi
1:55 AM30 °FOvercast.5 mph69%30.41 "Hg10 mi
1:35 AM30 °FOvercast.6 mph69%30.40 "Hg10 mi
1:15 AM30 °FOvercast.7 mph69%30.39 "Hg10 mi
12:55 AM30 °FPassing clouds.10 mph69%30.38 "Hg10 mi
12:35 AM30 °FOvercast.10 mph69%30.38 "Hg10 mi
12:15 AM32 °FOvercast.10 mph64%30.37 "Hg10 mi
11:55 PM
Nov 26
32 °FPassing clouds.10 mph64%30.36 "Hg10 mi
11:35 PM32 °FClear.9 mph69%30.35 "Hg10 mi
11:15 PM34 °FClear.8 mph60%30.34 "Hg10 mi
10:55 PM34 °FClear.9 mph65%30.34 "Hg10 mi
10:35 PM34 °FPassing clouds.8 mph65%30.34 "Hg10 mi
10:15 PM34 °FPassing clouds.10 mph65%30.33 "Hg10 mi
9:55 PM36 °FPassing clouds.8 mph65%30.32 "Hg10 mi
9:35 PM36 °FClear.13 mph65%30.31 "Hg10 mi
8:55 PM36 °FClear.15 mph60%30.29 "Hg10 mi
8:35 PM37 °FClear.16 mph60%30.27 "Hg10 mi
8:15 PM37 °FClear.13 mph60%30.26 "Hg10 mi
7:55 PM37 °FClear.14 mph60%30.25 "Hg10 mi
7:35 PM39 °FClear.15 mph52%30.25 "Hg10 mi
7:15 PM39 °FClear.15 mph52%30.23 "Hg10 mi
Weather by CustomWeather, © 2014

See weather overviewHow to use our weather pages